Location: Newark
(35.8833°N, 14.5000°E)
Time: 04:54:22
(UTC+00:00)

Altair - Pass Details

Date: 23 November 2019
Orbit: 1502 x 1682 km, 47.2° (Epoch: 07 December)

Event Time Altitude Azimuth Distance (km) Brightness Sun altitude
Rises 21:47:52 0° 184° (S) 4,718 - -69.6°
Reaches altitude 10° 21:52:02 10° 168° (SSE) 3,708 - -70.2°
Maximum altitude 21:58:15 20° 126° (SE) 2,958 - -71.0°
Drops below altitude 10° 22:04:22 10° 83° (E) 3,658 - -71.8°
Sets 22:08:24 0° 68° (ENE) 4,635 - -72.2°
